"2022-05-03 00:01:00",2920005,1.355333,352.4672,3.242353,0.05548174,1.48,0,1.026,309.1333,1.257722,0.03826225,1.11,0,-999,0,5.1,87.5,5.113,5.249,0.2,0,0,4.959,13.58,0.2,102.0526,3.331,3.333,3.329,100,0,0,0,67.93,195.2,195.2
"2022-05-03 00:02:00",2920006,1.414,350.7334,2.143685,0.03498572,1.49,0,1.052667,308.0667,0.9979326,0.01982145,1.08,0,-999,0,5.033,87.3,5.044,5.18,0.2,0,0,4.935,13.59,0.2,102.0476,3.333,3.334,3.331,100,0,0,0,67.93,195.2,195.2
"2022-05-03 00:03:00",2920007,1.532667,351.1333,2.578273,0.08314376,1.67,0,1.072667,307.8667,1.024162,0.01691813,1.1,0,-999,0,5,87.1,4.992,5.113,0.2,0,0,4.906,13.58,0.2,102.0511,3.331,3.333,3.331,100,0,0,0,67.93,195.2,195.2
"2022-05-03 00:04:00",2920008,1.708667,355.8004,2.87965,0.08546863,1.81,0,1.006667,307.4667,1.2578,0.05723247,1.11,0,-999,0,4.987,87.1,4.94,5.069,0.2,0,0,4.889,13.59,0.2,102.0471,3.334,3.334,3.333,100,0,0,0,67.93,195.2,195.2
"2022-05-03 00:05:00",2920009,1.856667,358.0667,1.878523,0.07435647,2.06,0,1.052667,309.7328,2.862445,0.04795369,1.11,0,-999,0,4.9,87.2,4.855,5.01,0.2,0,0,4.858,13.59,0.2,102.0472,3.333,3.334,3.333,100,0,0,0,67.93,195.2,195.2
"2022-05-03 00:06:00",2920010,1.862667,352.3993,2.576448,0.07169069,2.03,0,1.243333,310.4666,1.586006,0.1175112,1.38,0,-999,0,4.833,87.2,4.797,4.939,0.2,0,0,4.833,13.58,0.2,102.0471,3.331,3.331,3.329,100,0,0,0,67.93,195.2,195.2
"2022-05-03 00:07:00",2920011,2.043333,352.1996,3.080843,0.07568944,2.15,0,1.486,318.4667,2.305436,0.07897678,1.62,0,-999,0,4.8,87,4.766,4.888,0.2,0,0,4.815,13.58,0.2,102.044,3.329,3.331,3.328,100,0,0,0,67.93,195.2,195.2
"2022-05-03 00:08:00",2920012,2.194667,347.4662,2.12455,0.0935141,2.36,0,1.730667,321.4,1.306349,0.06999681,1.85,0,-999,0,4.813,86.4,4.868,4.943,0.2,0,0,4.791,13.58,0.2,102.0415,3.329,3.331,3.329,100,0,0,0,67.93,195.2,195.2
"2022-05-03 00:09:00",2920013,2.440667,347.5332,1.856873,0.08713719,2.58,0,1.641333,316.7327,3.150418,0.0560793,1.72,0,-999,0,4.887,86.2,4.994,5.019,0.2,0,0,4.77,13.58,0.2,102.0437,3.329,3.333,3.328,100,0,0,0,67.93,195.2,195.2
"2022-05-03 00:10:00",2920014,2.416667,348.8661,2.060579,0.108423,2.56,0,1.542,315.7997,1.93895,0.09731047,1.76,0,-999,0,4.9,86.4,4.931,5.013,0.2,0,0,4.748,13.59,0.2,102.0466,3.331,3.334,3.33,100,0,0,0,67.93,195.2,195.2
"2022-05-03 00:11:00",2920015,2.386,347.6667,1.445148,0.06848848,2.49,0,1.532,317.1334,1.087466,0.05798851,1.65,0,-999,0,4.8,86.6,4.899,4.964,0.2,0,0,4.728,13.58,0.2,102.0436,3.328,3.331,3.327,100,0,0,0,67.93,195.2,195.2
"2022-05-03 00:12:00",2920016,2.374,343.8001,2.03937,0.1301179,2.56,0,1.588,317.7333,1.062431,0.07377443,1.71,0,-999,0,4.8,86.6,4.862,4.935,0.2,0,0,4.715,13.58,0.2,102.0391,3.329,3.331,3.328,100,0,0,0,67.93,195.2,195.2
"2022-05-03 00:13:00",2920017,2.49,343.3998,1.925115,0.1422674,2.71,0,1.641333,319.4001,1.083047,0.09790245,1.85,0,-999,0,4.8,86.5,4.846,4.891,0.2,0,0,4.699,13.59,0.2,102.0458,3.331,3.331,3.328,100,0,0,0,67.93,195.2,195.2
"2022-05-03 00:14:00",2920018,2.812,344.2,1.640972,0.1097998,2.99,0,1.58,320.4669,1.927402,0.1351542,1.77,0,-999,0,4.72,86.4,4.813,4.866,0.2,0,0,4.684,13.58,0.2,102.0426,3.329,3.334,3.329,100,0,0,0,67.93,195.2,195.2
"2022-05-03 00:15:00",2920019,2.764,343.4661,3.007974,0.2110229,3.17,0,1.615333,322.133,2.093112,0.1076331,1.78,0,-999,0,4.7,86.2,4.834,4.854,0.2,0,0,4.665,13.59,0.2,102.0454,3.33,3.331,3.328,100,0,0,0,67.93,195.2,195.2
"2022-05-03 00:16:00",2920020,2.899333,344.5999,2.524242,0.1495088,3.15,0,1.482667,323.2,2.637966,0.1252979,1.69,0,-999,0,4.7,86.1,4.839,4.854,0.2,0,0,4.649,13.58,0.2,102.0457,3.327,3.33,3.327,100,0,0,0,67.93,195.2,195.2
"2022-05-03 00:17:00",2920021,2.778,343.5999,2.244648,0.1556149,3.13,0,1.513333,323.4665,1.66807,0.1152196,1.79,0,-999,0,4.727,86,4.862,4.866,0.2,0,0,4.643,13.59,0.2,102.0427,3.334,3.334,3.327,100,0,0,0,67.93,195.2,195.2
"2022-05-03 00:18:00",2920022,2.896,342.5333,2.753199,0.1464149,3.25,0,1.48,322.5331,3.303386,0.1133725,1.72,0,-999,0,4.713,86.1,4.82,4.84,0.2,0,0,4.628,13.59,0.2,102.0473,3.329,3.334,3.329,100,0,0,0,67.93,195.2,195.2
"2022-05-03 00:19:00",2920023,2.854667,342.6656,2.935673,0.1659666,3.18,0,1.628,326.059,5.430713,0.2636968,2.17,0,-999,0,4.7,86.1,4.794,4.803,0.2,0,0,4.615,13.58,0.2,102.0446,3.329,3.33,3.327,100,0,0,0,67.93,195.2,195.2
"2022-05-03 00:20:00",2920024,2.89,342.3991,3.573285,0.2197271,3.29,0,1.470667,323.5329,1.892647,0.126463,1.66,0,-999,0,4.7,86.1,4.806,4.812,0.2,0,0,4.6,13.59,0.2,102.0456,3.331,3.333,3.329,100,0,0,0,67.93,195.2,195.2
"2022-05-03 00:21:00",2920025,2.796666,343.8662,2.390415,0.2195956,3.16,0,1.326667,322.7335,2.791867,0.1175112,1.57,0,-999,0,4.7,86,4.841,4.824,0.2,0,0,4.59,13.59,0.2,102.0442,3.327,3.331,3.327,100,0,0,0,67.93,195.2,195.2
"2022-05-03 00:22:00",2920026,2.81,346.2605,4.792608,0.2103965,3.1,0,1.23,318.9315,4.005818,0.1189397,1.5,0,-999,0,4.793,86.1,4.935,4.898,0.2,0,0,4.576,13.59,0.2,102.0405,3.328,3.329,3.325,100,0,0,0,67.93,195.2,195.2
"2022-05-03 00:23:00",2920027,2.662666,346.6011,4.962895,0.2158848,2.95,0,1.282,318.9984,3.88054,0.09921022,1.57,0,-999,0,4.8,86.4,4.98,4.958,0.2,0,0,4.557,13.58,0.2,102.04,3.327,3.33,3.327,100,0,0,0,67.93,195.1,195.2
"2022-05-03 00:24:00",2920028,2.811333,348.067,4.387304,0.2703792,3.43,0,0.9646666,326.7997,3.187053,0.1822404,1.48,0,-999,0,4.8,86.9,4.94,4.926,0.2,0,0,4.557,13.59,0.2,102.039,3.329,3.329,3.327,100,0,0,0,67.93,195.2,195.2
"2022-05-03 00:25:00",2920029,2.894667,349.8655,3.262343,0.2131624,3.26,0,1.118667,331.8571,6.528292,0.1543099,1.35,0,-999,0,4.833,86.8,4.968,4.95,0.2,0,0,4.542,13.59,0.2,102.0429,3.329,3.331,3.328,100,0,0,0,67.93,195.2,195.2
"2022-05-03 00:26:00",2920030,2.547333,349.6672,3.735251,0.1615123,2.76,0,0.9586666,338.3343,5.470954,0.09358537,1.11,0,-999,0,4.967,86.3,5.08,5.034,0.2,0,0,4.532,13.58,0.2,102.0398,3.329,3.329,3.327,100,0,0,0,67.93,195.2,195.2
"2022-05-03 00:27:00",2920031,2.649333,351.1999,2.34357,0.1559687,2.95,0,0.9706668,339.7961,3.759944,0.1008277,1.18,0,-999,0,5.073,85.9,5.205,5.131,0.2,0,0,4.514,13.58,0.2,102.0418,3.328,3.329,3.327,100,0,0,0,67.93,195.1,195.2
"2022-05-03 00:28:00",2920032,2.521333,353.8664,3.073452,0.1037861,2.77,0,0.7959999,341.8207,8.842399,0.1451803,1,0,-999,0,5.193,85.9,5.31,5.235,0.2,0,0,4.508,13.58,0.2,102.041,3.327,3.329,3.327,100,0,0,0,67.93,195.1,195.2
"2022-05-03 00:29:00",2920033,2.336667,352.5331,2.334148,0.1074347,2.53,0,0.814,346.1219,6.765185,0.1043584,0.96,0,-999,0,5.2,86.3,5.346,5.296,0.2,0,0,4.493,13.59,0.2,102.0376,3.329,3.33,3.327,100,0,0,0,67.93,195.1,195.2
"2022-05-03 00:30:00",2920034,2.314,354.465,3.382683,0.0717217,2.41,0,0.7139999,348.8038,4.164227,0.06848844,0.86,0,-999,0,5.213,86.1,5.345,5.298,0.2,0,0,4.493,13.58,0.2,102.038,3.327,3.329,3.327,100,0,0,0,67.93,195.1,195.2
"2022-05-03 00:31:00",2920035,2.303333,353.5328,2.940411,0.07828721,2.42,0,0.612,349.6679,5.001145,0.06358197,0.73,0,-999,0,5.24,85.7,5.345,5.298,0.2,0,0,4.478,13.59,0.2,102.0397,3.329,3.331,3.327,100,0,0,0,67.93,195.2,195.2
"2022-05-03 00:32:00",2920036,2.302,353.2663,3.253976,0.123677,2.47,0,0.714,341.468,4.407681,0.1036533,0.97,0,-999,0,5.24,85.2,5.344,5.295,0.2,0,0,4.471,13.59,0.2,102.0402,3.328,3.329,3.327,100,0,0,0,67.93,195.2,195.2
"2022-05-03 00:33:00",2920037,2.26,348.5335,2.940644,0.1123091,2.42,0,0.4913334,327.1095,11.43615,0.1327085,0.78,0,-999,0,5.2,84.9,5.292,5.249,0.2,0,0,4.471,13.59,0.2,102.0373,3.329,3.331,3.325,100,0,0,0,67.93,195.1,195.1
"2022-05-03 00:34:00",2920038,1.788,342.9308,3.354528,0.1760757,2.05,0,0.7193334,322.1394,5.374937,0.1598527,0.94,0,-999,0,5.173,84.5,5.232,5.196,0.2,0,0,4.471,13.59,0.2,102.037,3.329,3.331,3.328,100,0,0,0,67.93,195.2,195.1
"2022-05-03 00:35:00",2920039,1.846667,340.4674,2.777227,0.1242399,2.02,0,0.9873334,322.4674,2.628701,0.1045923,1.17,0,-999,0,5.08,84.1,5.132,5.113,0.2,0,0,4.452,13.58,0.2,102.0328,3.326,3.331,3.326,100,0,0,0,67.93,195.1,195.1
"2022-05-03 00:36:00",2920040,2.068,344.466,2.603797,0.1165161,2.22,0,1.202667,321.0002,1.366189,0.09567074,1.37,0,-999,0,5,83.9,5.071,5.067,0.2,0,0,4.451,13.59,0.2,102.035,3.327,3.327,3.325,100,0,0,0,67.93,195.1,195.1
"2022-05-03 00:37:00",2920041,2.205333,344.9334,2.644606,0.07116803,2.32,0,1.354,322.9997,2.159978,0.03440929,1.41,0,-999,0,4.953,83.9,5.026,5.016,0.2,0,0,4.443,13.58,0.2,102.0319,3.325,3.329,3.325,100,0,0,0,67.93,195.1,195.1
"2022-05-03 00:38:00",2920042,2.048667,344.2,1.423448,0.09443635,2.22,0,1.413333,321.8666,1.203403,0.07299924,1.5,0,-999,0,4.9,84.1,4.962,4.971,0.2,0,0,4.429,13.59,0.2,102.0242,3.327,3.329,3.325,100,0,0,0,67.93,195.1,195.1
"2022-05-03 00:39:00",2920043,1.990667,343.465,2.847409,0.09190331,2.17,0,1.239333,320.3333,1.192292,0.05169999,1.34,0,-999,0,4.8,84.5,4.902,4.913,0.2,0,0,4.428,13.58,0.2,102.0279,3.327,3.327,3.325,100,0,0,0,67.93,195.1,195.1
"2022-05-03 00:40:00",2920044,2.018667,340.8664,2.305266,0.1072608,2.23,0,1.298667,317.1995,2.50828,0.07640826,1.45,0,-999,0,4.8,84.7,4.932,4.913,0.2,0,0,4.428,13.58,0.2,102.0254,3.327,3.329,3.325,100,0,0,0,67.93,195.1,195.1
"2022-05-03 00:41:00",2920045,1.973333,338.7312,4.071507,0.120259,2.18,0,1.256667,316.067,2.885702,0.07577745,1.46,0,-999,0,4.8,84.9,4.872,4.881,0.2,0,0,4.421,13.59,0.2,102.0233,3.325,3.329,3.325,100,0,0,0,67.93,195.1,195.1
"2022-05-03 00:42:00",2920046,1.917333,343.7998,3.797241,0.09760237,2.08,0,1.206667,317.9999,2.309342,0.06639947,1.33,0,-999,0,4.707,85.2,4.749,4.784,0.2,0,0,4.408,13.58,0.2,102.0234,3.327,3.327,3.325,100,0,0,0,67.93,195.1,195.1
"2022-05-03 00:43:00",2920047,1.952667,343.9331,1.611052,0.08636872,2.14,0,1.111333,313.5341,3.68529,0.0732909,1.27,0,-999,0,4.66,85.2,4.731,4.747,0.2,0,0,4.408,13.58,0.2,102.0223,3.328,3.329,3.325,100,0,0,0,67.93,195.1,195.1
"2022-05-03 00:44:00",2920048,1.936,342.6,2.026412,0.07761441,2.08,0,1.299333,315.4,2.41658,0.06071425,1.41,0,-999,0,4.607,85.2,4.708,4.71,0.2,0,0,4.388,13.58,0.2,102.0196,3.325,3.327,3.325,100,0,0,0,67.93,195.1,195.1
"2022-05-03 00:45:00",2920049,1.876667,343.1331,1.927503,0.05652925,1.95,0,1.217333,315.6,1.083047,0.05519259,1.33,0,-999,0,4.6,85.2,4.676,4.684,0.2,0,0,4.385,13.58,0.2,102.0248,3.327,3.327,3.325,100,0,0,0,67.93,195.1,195.1
"2022-05-03 00:46:00",2920050,1.878,338.6691,3.589147,0.09641575,2.06,0,1.23,311.3994,2.983827,0.05072802,1.3,0,-999,0,4.6,85.3,4.68,4.692,0.2,0,0,4.385,13.58,0.2,102.0236,3.327,3.329,3.326,100,0,0,0,67.93,195.1,195.1
"2022-05-03 00:47:00",2920051,2.022667,336.3995,3.178489,0.08306355,2.15,0,1.436667,307.4,1.306349,0.07507036,1.57,0,-999,0,4.6,85.4,4.657,4.68,0.2,0,0,4.377,13.59,0.2,102.0174,3.327,3.328,3.326,100,0,0,0,67.93,195.1,195.1
"2022-05-03 00:48:00",2920052,2.085333,329.2665,1.98215,0.04529412,2.14,0,1.582667,305.1336,2.093206,0.06786916,1.7,0,-999,0,4.56,85.5,4.574,4.61,0.2,0,0,4.365,13.59,0.2,102.0207,3.327,3.329,3.327,100,0,0,0,67.93,195.1,195.1
"2022-05-03 00:49:00",2920053,2.079333,329.7333,1.526056,0.06597645,2.2,0,1.643333,303.6686,2.747142,0.06278712,1.75,0,-999,0,4.5,85.5,4.505,4.546,0.2,0,0,4.365,13.58,0.2,102.0209,3.329,3.329,3.327,100,0,0,0,67.93,195.1,195.1
"2022-05-03 00:50:00",2920054,2.033333,328.4002,2.497751,0.1027403,2.17,0,1.590667,308.6667,2.467406,0.07593563,1.7,0,-999,0,4.487,85.7,4.448,4.495,0.2,0,0,4.344,13.58,0.2,102.0214,3.327,3.33,3.326,100,0,0,0,67.93,195.1,195.1
"2022-05-03 00:51:00",2920055,1.940667,326.0659,2.619179,0.07047146,2.14,0,1.652667,307.6002,1.540547,0.07094286,1.78,0,-999,0,4.4,85.7,4.442,4.473,0.2,0,0,4.342,13.58,0.2,102.027,3.329,3.329,3.327,100,0,0,0,67.93,195.1,195.1
"2022-05-03 00:52:00",2920056,2.079333,325.1333,2.028538,0.1023371,2.31,0,1.543333,308.8668,2.305351,0.06589554,1.69,0,-999,0,4.4,85.8,4.469,4.506,0.2,0,0,4.331,13.58,0.2,102.0284,3.325,3.327,3.325,100,0,0,0,67.93,195.1,195.1
"2022-05-03 00:53:00",2920057,2.128667,324.8666,1.586006,0.1253724,2.36,0,1.406,311.1328,2.629483,0.07821338,1.55,0,-999,0,4.4,86.1,4.432,4.479,0.2,0,0,4.322,13.59,0.2,102.0233,3.328,3.329,3.325,100,0,0,0,67.93,195.1,195.1
"2022-05-03 00:54:00",2920058,2.033334,330.5344,3.738376,0.1534347,2.32,0,1.206,316.3357,6.578739,0.1317978,1.42,0,-999,0,4.4,86,4.441,4.467,0.2,0,0,4.322,13.58,0.2,102.0249,3.327,3.329,3.326,100,0,0,0,67.93,195.1,195.1
"2022-05-03 00:55:00",2920059,2.065333,333.1333,2.629483,0.1058216,2.27,0,1.085333,311.3995,2.416296,0.1123012,1.37,0,-999,0,4.4,86,4.484,4.509,0.2,0,0,4.313,13.58,0.2,102.0228,3.325,3.327,3.323,100,0,0,0,67.93,195.1,195.1
"2022-05-03 00:56:00",2920060,2.126,329.6666,1.954842,0.05840094,2.26,0,1.196,309,1.825715,0.08708616,1.33,0,-999,0,4.4,86.4,4.455,4.491,0.2,0,0,4.299,13.59,0.2,102.0245,3.325,3.326,3.324,100,0,0,0,67.93,195.1,195.1
"2022-05-03 00:57:00",2920061,2.022,329.2001,2.071953,0.0878787,2.2,0,1.25,314.7328,2.885838,0.1070203,1.37,0,-999,0,4.393,86.5,4.411,4.451,0.2,0,0,4.299,13.58,0.2,102.0297,3.325,3.325,3.324,100,0,0,0,67.93,195.1,195.1
"2022-05-03 00:58:00",2920062,2.069333,326.3332,2.210885,0.06747509,2.2,0,1.438667,314.9999,1.673227,0.1076331,1.66,0,-999,0,4.313,86.2,4.382,4.426,0.2,0,0,4.299,13.58,0.2,102.0295,3.328,3.331,3.325,100,0,0,0,67.93,195.1,195.1
"2022-05-03 00:59:00",2920063,2.165334,325.6005,1.924962,0.06333685,2.27,0,1.626667,312.5334,1.407753,0.104222,1.84,0,-999,0,4.36,85.8,4.425,4.449,0.2,0,0,4.296,13.58,0.2,102.0329,3.326,3.328,3.326,100,0,0,0,67.93,195.1,195.1
"2022-05-03 01:00:00",2920064,2.091334,327.2667,1.982002,0.0607582,2.19,0,1.484,314.6669,2.022011,0.1195993,1.74,0,-999,0,4.4,85.8,4.46,4.461,0.2,0,0,4.282,13.58,0.2,102.025,3.324,3.326,3.324,100,0,0,0,67.93,195.1,195.1
"2022-05-03 01:01:00",2920065,2.234,328.0667,1.481799,0.09796596,2.4,0,1.525333,318.2002,2.785401,0.119324,1.74,0,-999,0,4.4,85.8,4.479,4.487,0.2,0,0,4.279,13.59,0.2,102.0201,3.325,3.327,3.325,100,0,0,0,67.93,195.1,195.1
"2022-05-03 01:02:00",2920066,2.486,328.3332,1.813447,0.116779,2.63,0,1.842667,319.0667,0.928337,0.1054177,2.03,0,-999,0,4.4,85.8,4.446,4.463,0.2,0,0,4.268,13.58,0.2,102.0255,3.325,3.327,3.324,100,0,0,0,67.93,195.1,195.1
"2022-05-03 01:03:00",2920067,2.774667,329.2667,2.112207,0.1217027,2.93,0,1.884,320.6005,1.99294,0.1094714,2.09,0,-999,0,4.34,85.7,4.419,4.446,0.2,0,0,4.256,13.58,0.2,102.0283,3.326,3.327,3.325,100,0,0,0,67.93,195.1,195.1
"2022-05-03 01:04:00",2920068,2.808,329.0667,1.388995,0.06655326,2.92,0,1.944,321.9325,2.669645,0.1770047,2.22,0,-999,0,4.3,85.8,4.377,4.408,0.2,0,0,4.256,13.58,0.2,102.0322,3.327,3.329,3.327,100,0,0,0,67.93,195.1,195.1
"2022-05-03 01:05:00",2920069,2.824667,329.7325,2.694487,0.07209869,2.98,0,1.992667,320.667,2.118411,0.1318315,2.24,0,-999,0,4.3,85.8,4.356,4.374,0.2,0,0,4.256,13.58,0.2,102.0376,3.327,3.329,3.325,100,0,0,0,67.93,195.1,195.1
"2022-05-03 01:06:00",2920070,2.666667,331.6662,2.723929,0.1413585,2.92,0,1.716,319.5976,4.253094,0.1258994,1.92,0,-999,0,4.287,86.1,4.346,4.362,0.2,0,0,4.256,13.58,0.2,102.0389,3.324,3.328,3.324,100,0,0,0,67.93,195.1,195.1
"2022-05-03 01:07:00",2920071,2.464,332.3333,3.495624,0.1132431,2.72,0,1.56,319.8665,1.856715,0.1613279,1.88,0,-999,0,4.3,86.4,4.35,4.376,0.2,0,0,4.239,13.59,0.2,102.0346,3.325,3.325,3.324,100,0,0,0,67.93,195.1,195.1
"2022-05-03 01:08:00",2920072,2.574667,333.1334,2.418161,0.1396122,2.81,0,1.502,321.1334,3.303445,0.1310064,1.65,0,-999,0,4.3,86.7,4.363,4.377,0.2,0,0,4.236,13.58,0.2,102.0265,3.329,3.329,3.325,100,0,0,0,67.93,195.1,195.1
"2022-05-03 01:09:00",2920073,2.784667,335.3996,2.751561,0.1093537,3.05,0,1.641333,323.1996,2.196486,0.09200482,1.8,0,-999,0,4.3,86.8,4.389,4.395,0.2,0,0,4.236,13.58,0.2,102.0298,3.325,3.329,3.325,100,0,0,0,67.93,195.1,195.1
"2022-05-03 01:10:00",2920074,2.830667,335.8673,2.917756,0.1047834,3.06,0,1.533333,326.7999,2.315103,0.0601849,1.65,0,-999,0,4.3,86.8,4.407,4.406,0.2,0,0,4.219,13.58,0.2,102.0319,3.323,3.325,3.323,100,0,0,0,67.93,195.1,195.1
"2022-05-03 01:11:00",2920075,2.644,337.1334,1.407822,0.1126528,2.86,0,1.470667,328.9319,4.492387,0.1045923,1.64,0,-999,0,4.347,87,4.434,4.449,0.2,0,0,4.213,13.59,0.2,102.0283,3.325,3.326,3.323,100,0,0,0,67.93,195.1,195.1
"2022-05-03 01:12:00",2920076,2.601333,338.8,1.640972,0.1386057,2.86,0,1.232667,326.6653,3.359261,0.104847,1.45,0,-999,0,4.4,87.4,4.503,4.487,0.2,0,0,4.213,13.58,0.2,102.0378,3.327,3.329,3.325,100,0,0,0,67.93,195.1,195.1
"2022-05-03 01:13:00",2920077,2.458667,337.2667,1.948018,0.1092927,2.68,0,0.9539999,322.5332,2.654775,0.1303739,1.29,0,-999,0,4.5,87.6,4.579,4.569,0.2,0,0,4.213,13.59,0.2,102.0356,3.328,3.328,3.325,100,0,0,0,67.93,195.1,195.1
"2022-05-03 01:14:00",2920078,2.356,336.3995,3.516832,0.1705599,2.67,0,0.9313334,320.2001,2.286196,0.06053831,1.05,0,-999,0,4.5,87.8,4.599,4.605,0.2,0,0,4.212,13.58,0.2,102.0397,3.325,3.327,3.325,100,0,0,0,67.93,195.1,195.1
"2022-05-03 01:15:00",2920079,2.235333,336.5344,3.323424,0.1512555,2.56,0,0.9233333,319.9345,3.955902,0.05827137,1.05,0,-999,0,4.5,87.9,4.571,4.593,0.2,0,0,4.197,13.59,0.2,102.0301,3.329,3.329,3.325,100,0,0,0,67.93,195.1,195.1
"2022-05-03 01:16:00",2920080,2.139333,340.0653,3.020397,0.1392105,2.33,0,0.936,323.2639,4.27893,0.08187795,1.1,0,-999,0,4.5,87.7,4.562,4.587,0.2,0,0,4.193,13.59,0.2,102.0285,3.326,3.328,3.325,100,0,0,0,67.93,195.1,195.1
"2022-05-03 01:17:00",2920081,2.108667,340.4669,1.857032,0.07383467,2.21,0,1.007333,322.5331,2.124873,0.0749637,1.11,0,-999,0,4.5,87.4,4.606,4.605,0.2,0,0,4.182,13.58,0.2,102.0253,3.325,3.326,3.323,100,0,0,0,67.93,195.1,195.1
"2022-05-03 01:18:00",2920082,2.038,342.6667,1.619234,0.0868869,2.2,0,1.000667,322.9999,1.999904,0.06597643,1.13,0,-999,0,4.5,87.3,4.585,4.606,0.2,0,0,4.17,13.59,0.2,102.0275,3.327,3.329,3.325,100,0,0,0,67.93,195.1,195.1
"2022-05-03 01:19:00",2920083,1.912,342.1999,2.103938,0.0799333,2.03,0,0.8946667,320.8669,1.783782,0.05619806,1.02,0,-999,0,4.5,87.3,4.578,4.602,0.2,0,0,4.17,13.59,0.2,102.0297,3.324,3.327,3.324,100,0,0,0,67.93,195.1,195.1
"2022-05-03 01:20:00",2920084,1.751334,344.4653,2.703926,0.07804842,1.85,0,0.8173333,318.2058,4.705524,0.02885981,0.87,0,-999,0,4.5,87.4,4.557,4.578,0.2,0,0,4.158,13.58,0.2,102.0325,3.327,3.327,3.325,100,0,0,0,67.93,195.1,195.1
"2022-05-03 01:21:00",2920085,1.700667,344.4001,2.550574,0.0754954,1.83,0,0.8273333,317.6106,5.791449,0.03275498,0.88,0,-999,0,4.5,87.4,4.514,4.545,0.2,0,0,4.15,13.59,0.2,102.0251,3.325,3.328,3.323,100,0,0,0,67.93,195.1,195.1
"2022-05-03 01:22:00",2920086,1.842667,345.5335,1.454195,0.1123368,2.07,0,0.9433333,319.2,1.904302,0.07896552,1.06,0,-999,0,4.487,87.2,4.492,4.52,0.2,0,0,4.142,13.59,0.2,102.0308,3.325,3.328,3.325,100,0,0,0,67.93,195.1,195.1
"2022-05-03 01:23:00",2920087,1.919333,344.1334,2.333938,0.07809962,2.12,0,1.148,321.0009,3.405483,0.07529499,1.25,0,-999,0,4.427,86.7,4.477,4.497,0.2,0,0,4.127,13.58,0.2,102.0269,3.324,3.325,3.323,100,0,0,0,67.93,195.1,195.1
"2022-05-03 01:24:00",2920088,1.97,344.3999,1.925216,0.1161034,2.24,0,1.251333,324.2,1.599772,0.03073901,1.31,0,-999,0,4.4,86.3,4.483,4.488,0.2,0,0,4.127,13.59,0.2,102.0236,3.325,3.326,3.324,100,0,0,0,67.93,195.1,195.1
"2022-05-03 01:25:00",2920089,2.072666,343.8665,2.629185,0.07370815,2.22,0,1.354667,322.7333,1.339931,0.07383464,1.5,0,-999,0,4.46,86.2,4.547,4.524,0.2,0,0,4.114,13.58,0.2,102.0217,3.325,3.326,3.325,100,0,0,0,67.93,195.1,195.1
"2022-05-03 01:26:00",2920090,2.148,343.2001,2.039514,0.08494706,2.32,0,1.420667,323.1332,1.2578,0.03355925,1.47,0,-999,0,4.5,86.4,4.567,4.557,0.2,0,0,4.104,13.58,0.2,102.024,3.325,3.326,3.324,100,0,0,0,67.93,195.1,195.1
"2022-05-03 01:27:00",2920091,2.078,344.2665,2.234897,0.08125678,2.29,0,1.468,322.8665,1.627435,0.03919183,1.54,0,-999,0,4.44,86.7,4.514,4.547,0.2,0,0,4.084,13.58,0.2,102.0294,3.325,3.326,3.323,100,0,0,0,67.93,195.1,195.1
"2022-05-03 01:28:00",2920092,2.016,343.5999,1.540484,0.05851496,2.15,0,1.406,322.8001,1.939152,0.08569713,1.54,0,-999,0,4.4,86.8,4.516,4.541,0.2,0,0,4.084,13.58,0.2,102.0231,3.325,3.325,3.325,100,0,0,0,67.93,195.1,195.1
"2022-05-03 01:29:00",2920093,1.921333,343.7334,1.289231,0.05897647,2.07,0,1.330667,324.4664,3.137882,0.08925369,1.52,0,-999,0,4.44,86.8,4.532,4.545,0.2,0,0,4.053,13.58,0.2,102.0263,3.325,3.327,3.324,100,0,0,0,67.93,195.1,195.1
"2022-05-03 01:30:00",2920094,1.877333,345.3333,1.07452,0.04725344,1.96,0,1.202667,322.1333,1.856926,0.03940672,1.25,0,-999,0,4.467,87,4.572,4.561,0.2,0,0,4.042,13.58,0.2,102.0169,3.325,3.325,3.323,100,0,0,0,67.93,195.1,195.1
"2022-05-03 01:31:00",2920095,1.776667,344.7333,0.8531991,0.03994441,1.85,0,1.168667,322.9334,3.065179,0.0468852,1.24,0,-999,0,4.5,87.2,4.573,4.568,0.2,0,0,4.028,13.58,0.2,102.0164,3.325,3.327,3.324,100,0,0,0,67.93,195.1,195.1
"2022-05-03 01:32:00",2920096,1.805333,343.6,1.199738,0.05965084,1.9,0,1.239333,319.8004,3.080811,0.04682827,1.3,0,-999,0,4.407,87.4,4.511,4.536,0.2,0,0,4.021,13.59,0.2,102.0183,3.327,3.327,3.325,100,0,0,0,67.93,195.1,195.1
"2022-05-03 01:33:00",2920097,1.829333,343.8666,1.499463,0.0599407,1.93,0,1.280667,322.1335,2.028489,0.02322833,1.34,0,-999,0,4.4,87.3,4.504,4.515,0.2,0,0,4.021,13.58,0.2,102.019,3.325,3.327,3.324,100,0,0,0,67.93,195.1,195.1
"2022-05-03 01:34:00",2920098,1.855333,342.6,1.083318,0.05004885,1.92,0,1.258667,322.0671,3.020852,0.0359382,1.3,0,-999,0,4.4,87.2,4.536,4.524,0.2,0,0,4,13.58,0.2,102.0253,3.323,3.325,3.323,100,0,0,0,67.93,195.1,195.1
"2022-05-03 01:35:00",2920099,1.771333,341.1999,1.469595,0.06119549,1.87,0,1.261333,322.0671,2.351207,0.05426683,1.34,0,-999,0,4.4,87.2,4.532,4.543,0.2,0,0,3.999,13.58,0.2,102.0216,3.326,3.327,3.323,100,0,0,0,67.93,195.1,195.1
"2022-05-03 01:36:00",2920100,1.846,341.6662,2.412686,0.05523283,1.93,0,1.275333,317.8669,2.65448,0.07821907,1.44,0,-999,0,4.427,87.2,4.543,4.546,0.2,0,0,3.982,13.58,0.2,102.0208,3.325,3.326,3.324,100,0,0,0,67.93,195.1,195.1
"2022-05-03 01:37:00",2920101,1.948,338.3333,2.021962,0.05552173,2.05,0,1.500667,315.0668,2.379408,0.08378281,1.6,0,-999,0,4.4,87.3,4.459,4.492,0.2,0,0,3.978,13.58,0.2,102.0191,3.325,3.326,3.323,100,0,0,0,67.93,195.1,195.1
"2022-05-03 01:38:00",2920102,2.072,336.6003,3.050464,0.04928828,2.16,0,1.648667,314.7333,1.651912,0.06479368,1.76,0,-999,0,4.32,87.2,4.382,4.442,0.2,0,0,3.965,13.58,0.2,102.0098,3.325,3.325,3.322,100,0,0,0,67.93,195.1,195.1
"2022-05-03 01:39:00",2920103,2.116,332.4667,2.028683,0.04543132,2.2,0,1.648,314.5334,1.543341,0.06144917,1.72,0,-999,0,4.293,87,4.322,4.378,0.2,0,0,3.956,13.58,0.2,102.0109,3.323,3.326,3.323,100,0,0,0,67.93,195.1,195.1
"2022-05-03 01:40:00",2920104,2.168,333.7334,1.691729,0.05923961,2.31,0,1.602667,315.1331,1.961842,0.07270642,1.71,0,-999,0,4.2,86.9,4.273,4.311,0.2,0,0,3.95,13.59,0.2,102.013,3.325,3.325,3.322,100,0,0,0,67.93,195.1,195.1
"2022-05-03 01:41:00",2920105,2.125334,335.2669,2.694487,0.07154177,2.24,0,1.554,314.2,1.107528,0.1069455,1.77,0,-999,0,4.2,86.9,4.226,4.279,0.2,0,0,3.935,13.58,0.2,102.0148,3.325,3.326,3.323,100,0,0,0,67.93,195.1,195.1
"2022-05-03 01:42:00",2920106,2.097333,333.4667,1.585945,0.03193051,2.17,0,1.54,312.0009,3.076321,0.120222,1.67,0,-999,0,4.147,87.1,4.17,4.216,0.2,0,0,3.935,13.58,0.2,102.013,3.325,3.325,3.322,100,0,0,0,67.93,195.1,195.1
"2022-05-03 01:43:00",2920107,2.132,331.7334,1.569191,0.08223544,2.29,0,1.626667,314.3334,1.660011,0.05485334,1.74,0,-999,0,4.1,87.2,4.136,4.163,0.2,0,0,3.935,13.58,0.2,102.0164,3.324,3.325,3.322,100,0,0,0,67.93,195.1,195.1
"2022-05-03 01:44:00",2920108,2.166667,331.6673,2.936007,0.05652926,2.25,0,1.546667,316.5332,2.552264,0.1154508,1.75,0,-999,0,4.1,87.1,4.129,4.161,0.2,0,0,3.926,13.58,0.2,102.017,3.324,3.325,3.322,100,0,0,0,67.93,195.1,195.1
"2022-05-03 01:45:00",2920109,2.200667,332.7997,1.938849,0.07767165,2.34,0,1.539333,318.4666,1.995591,0.06350502,1.63,0,-999,0,4.027,87.3,4.076,4.131,0.2,0,0,3.913,13.58,0.2,102.0088,3.324,3.325,3.323,100,0,0,0,67.93,195.1,195.1
"2022-05-03 01:46:00",2920110,2.303333,332.9999,1.750877,0.08178561,2.42,0,1.604,318.3335,1.988463,0.1092276,1.8,0,-999,0,4,87.4,4.058,4.094,0.2,0,0,3.929,13.58,0.2,102.0059,3.322,3.326,3.322,100,0,0,0,67.93,195.1,195.1
"2022-05-03 01:47:00",2920111,2.397333,332.3333,1.813663,0.07767168,2.52,0,1.691333,317.0668,1.982002,0.1548706,1.9,0,-999,0,3.967,87.6,4.002,4.062,0.2,0,0,3.932,13.59,0.2,102.0041,3.324,3.325,3.321,100,0,0,0,67.93,195.1,195.1